{"data":{"norad_id":65280,"epoch":"2026-05-25T03:04:02.841888Z","epoch_age_seconds":61027,"freshness":"FRESH","line1":"1 65280U 25184H   26145.12781067  .00003724  00000+0  26198-3 0  9995","line2":"2 65280  97.4480 197.6558 0002751 122.0977 238.0518 15.05659326 42802","mean_motion":15.05659326,"eccentricity":0.0002751,"inclination_deg":97.448,"raan_deg":197.6558,"arg_perigee_deg":122.0977,"mean_anomaly_deg":238.0518,"bstar":0.00026198,"rev_number":4280,"period_min":95.639164526385,"perigee_km":547.57675946881,"apogee_km":551.38833574391,"semimajor_km":6927.6195476064,"source":"CELESTRAK","updated_at":"2026-05-25T13:38:20.730799Z"}}